Time,TemperatureF,DewpointF,PressureIn,WindDirection,WindDirectionDegrees,WindSpeedMPH,WindSpeedGustMPH,Humidity,HourlyPrecipIn,Conditions,Clouds,dailyrainin,SoftwareType,DateUTC
2013-02-19 00:02:00,30.0,22.0,29.75,WNW,296,20.0,-999.0,71,-99.99,,,-99.99,,2013-02-19 06:02:00,
2013-02-19 00:11:00,30.0,22.0,29.75,WNW,296,20.0,-999.0,71,-99.99,,,-99.99,,2013-02-19 06:11:00,
2013-02-19 00:21:00,29.0,21.0,29.77,NW,304,20.0,-999.0,73,-99.99,,,-99.99,,2013-02-19 06:21:00,
2013-02-19 00:32:00,29.0,20.0,29.77,West,269,15.0,-999.0,70,-99.99,,,-99.99,,2013-02-19 06:32:00,
2013-02-19 00:42:00,29.0,20.0,29.77,West,269,15.0,-999.0,70,-99.99,,,-99.99,,2013-02-19 06:42:00,
2013-02-19 00:52:00,29.0,21.0,29.78,WNW,293,14.0,-999.0,71,-99.99,,,-99.99,,2013-02-19 06:52:00,
2013-02-19 01:01:00,29.0,20.0,29.79,WNW,285,18.0,-999.0,70,-99.99,,,-99.99,,2013-02-19 07:01:00,
2013-02-19 01:11:00,29.0,20.0,29.79,WNW,285,18.0,-999.0,70,-99.99,,,-99.99,,2013-02-19 07:11:00,
2013-02-19 01:21:00,29.0,21.0,29.80,WNW,297,15.0,-999.0,72,-99.99,,,-99.99,,2013-02-19 07:21:00,
2013-02-19 01:32:00,28.0,20.0,29.80,WNW,289,14.0,-999.0,73,-99.99,,,-99.99,,2013-02-19 07:32:00,
2013-02-19 01:42:00,28.0,20.0,29.80,WNW,289,14.0,-999.0,73,-99.99,,,-99.99,,2013-02-19 07:42:00,
2013-02-19 01:52:00,28.0,20.0,29.81,WNW,294,12.0,-999.0,73,-99.99,,,-99.99,,2013-02-19 07:52:00,
2013-02-19 02:01:00,28.0,20.0,29.82,West,278,14.0,-999.0,71,-99.99,,,-99.99,,2013-02-19 08:01:00,
2013-02-19 02:11:00,28.0,20.0,29.82,West,278,14.0,-999.0,71,-99.99,,,-99.99,,2013-02-19 08:11:00,
2013-02-19 02:21:00,27.0,19.0,29.82,NW,304,15.0,-999.0,70,-99.99,,,-99.99,,2013-02-19 08:21:00,
2013-02-19 02:31:00,27.0,18.0,29.83,NW,305,14.0,-999.0,67,-99.99,,,-99.99,,2013-02-19 08:31:00,
2013-02-19 02:42:00,27.0,18.0,29.83,NW,305,14.0,-999.0,67,-99.99,,,-99.99,,2013-02-19 08:42:00,
2013-02-19 02:52:00,26.0,17.0,29.83,WNW,294,14.0,-999.0,69,-99.99,,,-99.99,,2013-02-19 08:52:00,
2013-02-19 03:01:00,26.0,17.0,29.83,NW,308,14.0,-999.0,67,-99.99,,,-99.99,,2013-02-19 09:01:00,
2013-02-19 03:11:00,26.0,17.0,29.83,NW,308,14.0,-999.0,67,-99.99,,,-99.99,,2013-02-19 09:11:00,
2013-02-19 03:21:00,25.0,16.0,29.83,WNW,283,15.0,-999.0,68,-99.99,,,-99.99,,2013-02-19 09:21:00,
2013-02-19 03:32:00,25.0,16.0,29.83,WNW,301,13.0,-999.0,69,-99.99,,,-99.99,,2013-02-19 09:32:00,
2013-02-19 03:42:00,25.0,16.0,29.83,WNW,301,13.0,-999.0,69,-99.99,,,-99.99,,2013-02-19 09:42:00,
2013-02-19 03:53:00,25.0,17.0,29.83,WNW,295,14.0,-999.0,70,-99.99,,,-99.99,,2013-02-19 09:53:00,
2013-02-19 04:01:00,25.0,16.0,29.83,NW,308,13.0,-999.0,69,-99.99,,,-99.99,,2013-02-19 10:01:00,
2013-02-19 04:11:00,25.0,16.0,29.83,NW,308,13.0,-999.0,69,-99.99,,,-99.99,,2013-02-19 10:11:00,
2013-02-19 04:21:00,24.0,15.0,29.83,WNW,300,15.0,-999.0,67,-99.99,,,-99.99,,2013-02-19 10:21:00,
2013-02-19 04:31:00,24.0,15.0,29.85,West,279,14.0,-999.0,68,-99.99,,,-99.99,,2013-02-19 10:31:00,
2013-02-19 04:41:00,24.0,15.0,29.85,West,279,14.0,-999.0,68,-99.99,,,-99.99,,2013-02-19 10:41:00,
2013-02-19 04:52:00,24.0,16.0,29.85,WNW,297,13.0,-999.0,70,-99.99,,,-99.99,,2013-02-19 10:52:00,
2013-02-19 05:01:00,24.0,16.0,29.85,West,279,11.0,-999.0,70,-99.99,,,-99.99,,2013-02-19 11:01:00,
2013-02-19 05:11:00,24.0,15.0,29.86,WNW,294,14.0,-999.0,69,-99.99,,,-99.99,,2013-02-19 11:11:00,
2013-02-19 05:21:00,24.0,15.0,29.86,WNW,294,14.0,-999.0,69,-99.99,,,-99.99,,2013-02-19 11:21:00,
2013-02-19 05:32:00,23.0,14.0,29.87,NW,319,15.0,-999.0,69,-99.99,,,-99.99,,2013-02-19 11:32:00,
2013-02-19 05:42:00,23.0,14.0,29.87,NW,319,15.0,-999.0,69,-99.99,,,-99.99,,2013-02-19 11:42:00,
2013-02-19 05:52:00,23.0,15.0,29.88,WNW,290,11.0,-999.0,71,-99.99,,,-99.99,,2013-02-19 11:52:00,
2013-02-19 06:01:00,23.0,14.0,29.89,WNW,300,15.0,-999.0,69,-99.99,,,-99.99,,2013-02-19 12:01:00,
2013-02-19 06:12:00,23.0,14.0,29.89,WNW,300,15.0,-999.0,69,-99.99,,,-99.99,,2013-02-19 12:12:00,
2013-02-19 06:22:00,22.0,13.0,29.90,West,276,16.0,-999.0,68,-99.99,,,-99.99,,2013-02-19 12:22:00,
2013-02-19 06:32:00,22.0,13.0,29.90,WNW,302,16.0,-999.0,68,-99.99,,,-99.99,,2013-02-19 12:32:00,
2013-02-19 06:42:00,22.0,13.0,29.90,WNW,302,16.0,-999.0,68,-99.99,,,-99.99,,2013-02-19 12:42:00,
2013-02-19 06:52:00,21.0,12.0,29.91,West,259,17.0,-999.0,68,-99.99,,,-99.99,,2013-02-19 12:52:00,
2013-02-19 07:02:00,21.0,13.0,29.91,WNW,299,15.0,-999.0,70,-99.99,,,-99.99,,2013-02-19 13:02:00,
2013-02-19 07:11:00,21.0,13.0,29.91,WNW,299,15.0,-999.0,70,-99.99,,,-99.99,,2013-02-19 13:11:00,
2013-02-19 07:22:00,22.0,13.0,29.92,WNW,285,13.0,-999.0,69,-99.99,,,-99.99,,2013-02-19 13:22:00,
2013-02-19 07:32:00,22.0,14.0,29.93,West,276,13.0,-999.0,70,-99.99,,,-99.99,,2013-02-19 13:32:00,
2013-02-19 07:41:00,22.0,14.0,29.93,West,276,13.0,-999.0,70,-99.99,,,-99.99,,2013-02-19 13:41:00,
2013-02-19 07:52:00,22.0,14.0,29.93,West,276,13.0,-999.0,70,-99.99,,,-99.99,,2013-02-19 13:52:00,
2013-02-19 08:01:00,21.0,12.0,29.94,NNW,336,18.0,-999.0,68,-99.99,,,-99.99,,2013-02-19 14:01:00,
2013-02-19 08:11:00,21.0,12.0,29.94,NNW,336,18.0,-999.0,68,-99.99,,,-99.99,,2013-02-19 14:11:00,
2013-02-19 08:21:00,21.0,13.0,29.95,NW,314,16.0,-999.0,70,-99.99,,,-99.99,,2013-02-19 14:21:00,
2013-02-19 08:32:00,22.0,14.0,29.96,WNW,299,14.0,-999.0,71,-99.99,,,-99.99,,2013-02-19 14:32:00,
2013-02-19 08:42:00,22.0,14.0,29.96,WNW,299,14.0,-999.0,71,-99.99,,,-99.99,,2013-02-19 14:42:00,
2013-02-19 08:52:00,22.0,14.0,29.97,WNW,289,13.0,-999.0,72,-99.99,,,-99.99,,2013-02-19 14:52:00,
2013-02-19 09:01:00,21.0,12.0,29.98,WNW,301,18.0,-999.0,69,-99.99,,,-99.99,,2013-02-19 15:01:00,
2013-02-19 09:11:00,21.0,12.0,29.98,WNW,301,18.0,-999.0,69,-99.99,,,-99.99,,2013-02-19 15:11:00,
2013-02-19 09:21:00,21.0,12.0,29.99,NW,306,18.0,-999.0,69,-99.99,,,-99.99,,2013-02-19 15:21:00,
2013-02-19 09:31:00,21.0,12.0,29.99,WNW,301,17.0,-999.0,68,-99.99,,,-99.99,,2013-02-19 15:31:00,
2013-02-19 09:42:00,21.0,12.0,29.99,WNW,301,17.0,-999.0,68,-99.99,,,-99.99,,2013-02-19 15:42:00,
2013-02-19 09:52:00,21.0,12.0,29.99,NW,304,18.0,-999.0,67,-99.99,,,-99.99,,2013-02-19 15:52:00,
2013-02-19 10:01:00,21.0,12.0,30.00,WNW,295,15.0,-999.0,69,-99.99,,,-99.99,,2013-02-19 16:01:00,
2013-02-19 10:11:00,21.0,12.0,30.00,WNW,295,15.0,-999.0,69,-99.99,,,-99.99,,2013-02-19 16:11:00,
2013-02-19 10:21:00,22.0,14.0,30.01,WSW,252,18.0,-999.0,70,-99.99,,,-99.99,,2013-02-19 16:21:00,
2013-02-19 10:32:00,21.0,12.0,30.01,West,281,15.0,-999.0,69,-99.99,,,-99.99,,2013-02-19 16:32:00,
2013-02-19 10:41:00,21.0,12.0,30.01,West,281,15.0,-999.0,69,-99.99,,,-99.99,,2013-02-19 16:41:00,
2013-02-19 10:52:00,21.0,11.0,30.03,WNW,294,18.0,-999.0,66,-99.99,,,-99.99,,2013-02-19 16:52:00,
2013-02-19 11:01:00,21.0,11.0,30.03,WNW,300,21.0,-999.0,66,-99.99,,,-99.99,,2013-02-19 17:01:00,
2013-02-19 11:11:00,21.0,11.0,30.03,WNW,300,21.0,-999.0,66,-99.99,,,-99.99,,2013-02-19 17:11:00,
2013-02-19 11:21:00,22.0,12.0,30.03,NW,310,20.0,-999.0,65,-99.99,,,-99.99,,2013-02-19 17:21:00,
2013-02-19 11:32:00,22.0,13.0,30.03,NW,316,23.0,-999.0,67,-99.99,,,-99.99,,2013-02-19 17:32:00,
2013-02-19 11:41:00,23.0,13.0,30.04,West,262,17.0,-999.0,65,-99.99,,,-99.99,,2013-02-19 17:41:00,
2013-02-19 11:52:00,23.0,13.0,30.04,West,262,17.0,-999.0,65,-99.99,,,-99.99,,2013-02-19 17:52:00,
2013-02-19 12:01:00,22.0,12.0,30.04,WNW,302,19.0,-999.0,66,-99.99,,,-99.99,,2013-02-19 18:01:00,
2013-02-19 12:11:00,22.0,12.0,30.04,WNW,302,19.0,-999.0,66,-99.99,,,-99.99,,2013-02-19 18:11:00,
2013-02-19 12:21:00,23.0,13.0,30.04,West,271,18.0,-999.0,66,-99.99,,,-99.99,,2013-02-19 18:21:00,
2013-02-19 12:31:00,23.0,13.0,30.05,WNW,289,16.0,-999.0,64,-99.99,,,-99.99,,2013-02-19 18:31:00,
2013-02-19 12:41:00,23.0,13.0,30.06,WNW,297,17.0,-999.0,64,-99.99,,,-99.99,,2013-02-19 18:41:00,
2013-02-19 12:52:00,23.0,13.0,30.06,WNW,297,17.0,-999.0,64,-99.99,,,-99.99,,2013-02-19 18:52:00,
2013-02-19 13:01:00,24.0,14.0,30.06,WNW,297,20.0,-999.0,64,-99.99,,,-99.99,,2013-02-19 19:01:00,
2013-02-19 13:11:00,24.0,14.0,30.06,WNW,297,20.0,-999.0,64,-99.99,,,-99.99,,2013-02-19 19:11:00,
2013-02-19 13:21:00,23.0,13.0,30.06,WNW,286,16.0,-999.0,64,-99.99,,,-99.99,,2013-02-19 19:21:00,
2013-02-19 13:31:00,23.0,13.0,30.06,West,275,16.0,-999.0,64,-99.99,,,-99.99,,2013-02-19 19:31:00,
2013-02-19 13:41:00,23.0,13.0,30.06,West,275,16.0,-999.0,64,-99.99,,,-99.99,,2013-02-19 19:41:00,
2013-02-19 13:52:00,23.0,13.0,30.06,WNW,294,14.0,-999.0,65,-99.99,,,-99.99,,2013-02-19 19:52:00,
2013-02-19 14:01:00,23.0,13.0,30.06,NW,310,15.0,-999.0,64,-99.99,,,-99.99,,2013-02-19 20:01:00,
2013-02-19 14:12:00,23.0,13.0,30.06,NW,310,15.0,-999.0,64,-99.99,,,-99.99,,2013-02-19 20:12:00,
2013-02-19 14:21:00,23.0,13.0,30.06,NW,310,15.0,-999.0,64,-99.99,,,-99.99,,2013-02-19 20:21:00,
2013-02-19 14:32:00,23.0,13.0,30.06,NW,310,15.0,-999.0,64,-99.99,,,-99.99,,2013-02-19 20:32:00,
2013-02-19 14:41:00,23.0,13.0,30.06,NW,310,15.0,-999.0,64,-99.99,,,-99.99,,2013-02-19 20:41:00,
2013-02-19 19:21:00,23.0,12.0,30.17,WNW,302,9.0,-999.0,63,-99.99,,,-99.99,,2013-02-20 01:21:00,
2013-02-19 19:32:00,23.0,13.0,30.17,WNW,289,8.0,-999.0,64,-99.99,,,-99.99,,2013-02-20 01:32:00,
2013-02-19 19:42:00,23.0,13.0,30.17,WNW,289,8.0,-999.0,64,-99.99,,,-99.99,,2013-02-20 01:42:00,
2013-02-19 19:52:00,23.0,13.0,30.17,WNW,295,8.0,-999.0,64,-99.99,,,-99.99,,2013-02-20 01:52:00,
2013-02-19 20:01:00,22.0,12.0,30.17,NW,309,7.0,-999.0,64,-99.99,,,-99.99,,2013-02-20 02:01:00,
2013-02-19 20:11:00,22.0,12.0,30.17,NW,309,7.0,-999.0,64,-99.99,,,-99.99,,2013-02-20 02:11:00,
2013-02-19 20:21:00,22.0,12.0,30.17,WNW,297,7.0,-999.0,64,-99.99,,,-99.99,,2013-02-20 02:21:00,
2013-02-19 20:31:00,22.0,12.0,30.18,WNW,294,7.0,-999.0,64,-99.99,,,-99.99,,2013-02-20 02:31:00,
2013-02-19 20:42:00,22.0,12.0,30.18,WNW,294,7.0,-999.0,64,-99.99,,,-99.99,,2013-02-20 02:42:00,
2013-02-19 20:52:00,22.0,12.0,30.18,WNW,283,6.0,-999.0,64,-99.99,,,-99.99,,2013-02-20 02:52:00,
2013-02-19 21:01:00,22.0,12.0,30.18,WNW,292,7.0,-999.0,64,-99.99,,,-99.99,,2013-02-20 03:01:00,
2013-02-19 21:12:00,22.0,12.0,30.18,WNW,292,7.0,-999.0,64,-99.99,,,-99.99,,2013-02-20 03:12:00,
2013-02-19 21:22:00,22.0,12.0,30.18,WNW,295,7.0,-999.0,64,-99.99,,,-99.99,,2013-02-20 03:22:00,
2013-02-19 21:32:00,22.0,12.0,30.19,WNW,297,8.0,-999.0,65,-99.99,,,-99.99,,2013-02-20 03:32:00,
2013-02-19 21:41:00,22.0,12.0,30.19,WNW,297,8.0,-999.0,65,-99.99,,,-99.99,,2013-02-20 03:41:00,
2013-02-19 21:52:00,21.0,11.0,30.19,NW,305,12.0,-999.0,65,-99.99,,,-99.99,,2013-02-20 03:52:00,
2013-02-19 22:01:00,21.0,11.0,30.19,NW,305,12.0,-999.0,65,-99.99,,,-99.99,,2013-02-20 04:01:00,
2013-02-19 22:11:00,21.0,11.0,30.19,NW,305,12.0,-999.0,65,-99.99,,,-99.99,,2013-02-20 04:11:00,
2013-02-19 22:21:00,20.0,11.0,30.20,NW,309,8.0,-999.0,66,-99.99,,,-99.99,,2013-02-20 04:21:00,
2013-02-19 22:31:00,20.0,11.0,30.20,NW,309,8.0,-999.0,66,-99.99,,,-99.99,,2013-02-20 04:31:00,
2013-02-19 22:42:00,20.0,11.0,30.20,NW,309,8.0,-999.0,66,-99.99,,,-99.99,,2013-02-20 04:42:00,
2013-02-19 22:52:00,20.0,10.0,30.21,WNW,299,12.0,-999.0,64,-99.99,,,-99.99,,2013-02-20 04:52:00,
2013-02-19 23:02:00,20.0,9.0,30.22,WNW,295,9.0,-999.0,63,-99.99,,,-99.99,,2013-02-20 05:02:00,
2013-02-19 23:12:00,20.0,9.0,30.22,WNW,295,9.0,-999.0,63,-99.99,,,-99.99,,2013-02-20 05:12:00,
2013-02-19 23:22:00,20.0,9.0,30.23,WNW,299,10.0,-999.0,62,-99.99,,,-99.99,,2013-02-20 05:22:00,
2013-02-19 23:32:00,20.0,9.0,30.23,WNW,295,8.0,-999.0,62,-99.99,,,-99.99,,2013-02-20 05:32:00,
2013-02-19 23:43:00,20.0,9.0,30.23,WNW,295,8.0,-999.0,62,-99.99,,,-99.99,,2013-02-20 05:43:00,
2013-02-19 23:52:00,19.0,9.0,30.23,NW,304,8.0,-999.0,64,-99.99,,,-99.99,,2013-02-20 05:52:00,